Regional Weather Roundup
Issued by NWS Northern Indiana

Home | Current Version | Previous Version | Text Only | Print | Product List | Glossary Off
Versions: 1 2 3 4 5 6 7 8 9 10 11 12 13 14 15 16 17 18 19 20 21 22 23 24 25 26 27 28 29 30 31 32 33 34 35 36 37 38 39 40 41 42 43 44 45 46 47 48 49 50

000
ASUS43 KIWX 310910
RWRIWX

KIWX WEATHER ROUNDUP
NATIONAL WEATHER SERVICE NORTHERN INDIANA
500 AM EDT FRI JUL 31 2015

NOTE: "FAIR" INDICATES FEW OR NO CLOUDS BELOW 12,000 FEET WITH NO
SIGNIFICANT WEATHER AND/OR OBSTRUCTIONS TO VISIBILITY.

* THESE STATIONS ARE NOT UNDER NWS QUALITY CONTROL. THEY ALSO MAY NOT
  REPORT WEATHER SUCH AS PRECIPITATION OR FOG.

INZ001>027-311000-
NORTHERN INDIANA

CITY           SKY/WX    TMP DP  RH WIND       PRES   REMARKS
GARY*          CLEAR     70  62  77 SW5       30.04S
VALPARAISO     CLEAR     66  61  84 W5        30.04S
MICHIGAN CITY* CLEAR     63  63 100 CALM      30.03S
LAPORTE*       CLEAR     68  61  78 W6        30.04S
KNOX*          CLEAR     64  63  94 W6        30.02F
SOUTH BEND     CLEAR     66  61  84 W7        30.02S
GOSHEN         CLEAR     63  59  87 CALM      30.01S
MONTICELLO*    CLEAR     66  65  95 CALM      30.04S
LOGANSPORT*    CLEAR     61  59  94 W5        30.05S
ROCHESTER*     CLEAR     68  64  88 W5        30.04S
WARSAW*        CLEAR     63  61  94 W3        30.03R
ANGOLA*        CLEAR     66  61  82 W5        30.01S
FORT WAYNE     CLEAR     67  62  84 W9        30.02S
HUNTINGTON*    CLEAR     66  62  86 W6        30.02S
PERU/GRISSOM   CLEAR     65  62  90 W7        30.03F
MARION*        CLEAR     63  61  92 W5        30.04S

$$
INZ028>050-311000-
CENTRAL INDIANA

CITY           SKY/WX    TMP DP  RH WIND       PRES   REMARKS
LAFAYETTE      CLEAR     64  63  96 W3        30.05S
KOKOMO*        CLEAR     68  61  77 W9        30.04F
MUNCIE*        CLEAR     66  61  84 W7        30.04F
INDIANAPOLIS   CLEAR     66  60  81 W7        30.03F

$$
MIZ043>046-050>051-056>058-064>065-071>073-077>080-311000-
SOUTHWEST LOWER MICHIGAN

CITY           SKY/WX    TMP DP  RH WIND       PRES   REMARKS
BATTLE CREEK   CLEAR     67  59  75 W7        29.99F
BENTON HARBOR  CLEAR     72  62  71 W9        30.00S
COLDWATER*     CLEAR     61  57  87 W5        30.00S
HILLSDALE*     CLEAR     67  59  75 W6        30.00F
HOLLAND        CLEAR     68  61  78 W5        29.99S
GRAND RAPIDS   CLEAR     65  60  84 SW7       29.97S
KALAMAZOO      CLEAR     67  58  72 CALM      29.99F
STURGIS*       CLEAR     61  57  88 CALM      30.00F
THREE RIVERS*  FAIR      62  58  87 SW3       30.01S

$$
OHZ001>008-015>018-024>025-311000-
NORTHWEST OHIO

CITY           SKY/WX    TMP DP  RH WIND       PRES   REMARKS
WAUSEON*       FAIR      63  59  88 W5        29.98F
DEFIANCE       CLEAR     65  58  78 SW3       29.99F
FINDLAY        CLEAR     66  57  72 SW7       29.99S
TOLEDO EXPRESS CLEAR     64  57  78 W8        29.97F
TOLEDO METCALF CLEAR     66  57  72 SW6       29.98S
LIMA           CLEAR     65  58  78 SW6       30.01F

$$
AND FOR LAKE MICHIGAN COASTAL AND OPEN LAKE BUOY OBSERVATIONS

STATION/POSITION TEMP    WIND        PRES    VSBY  WAVE
                 AIR SEA DIR/SP/G                  HT/PER
                 (F)     (DEG/KT/KT) (MB)    (MI)  (FT/S)
CALUMET HARBOR    73     260/  2/  4   N/A
MICHIGAN CITY     75     250/ 12/ 14   N/A
BURNS HARBOR      75     260/ 10/ 11 1017.3S
SAINT JOSEPH      73     260/  8/ 10 1016.3F
4 MI NW BRIDGMAN  74 74  310/ 12/ 14   N/A           2/ 3
MICHIGAN CITY     75 74  290/ 10/ 12   N/A           2/ 3

$$
&&


USA.gov is the U.S. government's official web portal to all federal, state and local government web resources and services.